MON30A ENBR-ENCN

Flight info

Callsign MON30A
Flight time 0h 35m
Altitude 27000
Route TUXIL DCT PEVEB
Aircraft A320/M-SDE3FGHIRWY/LB1

Departure

Time 2026-04-30 21:14
Airport Bergen Airport, Flesland (ENBR)

Arrival

Time 2026-04-30 21:49
Airport Kristiansand Airport (ENCN)
Time Latitude Longitude Altitude Speed Heading
2026-04-30 20:48 60.28897 5.22535 176 ft 0 kts 85°
2026-04-30 21:02 60.28896 5.22505 175 ft 4 kts 79°
2026-04-30 21:03 60.28888 5.22454 175 ft 4 kts 57°
2026-04-30 21:03 60.28871 5.22421 175 ft 4 kts
2026-04-30 21:03 60.28860 5.22421 175 ft 1 kts 349°
2026-04-30 21:03 60.28859 5.22421 175 ft 0 kts 349°
2026-04-30 21:08 60.28862 5.22420 175 ft 0 kts 349°
2026-04-30 21:08 60.28864 5.22419 175 ft 2 kts 350°
2026-04-30 21:08 60.28893 5.22409 175 ft 7 kts 349°
2026-04-30 21:09 60.28934 5.22333 174 ft 11 kts 287°
2026-04-30 21:09 60.29007 5.22248 173 ft 12 kts 352°
2026-04-30 21:09 60.29079 5.22227 175 ft 10 kts 351°
2026-04-30 21:09 60.29150 5.22202 172 ft 12 kts 350°
2026-04-30 21:10 60.29240 5.22171 168 ft 14 kts 350°
2026-04-30 21:10 60.29346 5.22136 163 ft 17 kts 347°
2026-04-30 21:10 60.29467 5.22093 158 ft 19 kts 351°
2026-04-30 21:10 60.29605 5.22045 153 ft 22 kts 350°
2026-04-30 21:11 60.29772 5.21989 149 ft 26 kts 351°
2026-04-30 21:11 60.29915 5.21942 155 ft 13 kts 351°
2026-04-30 21:11 60.29990 5.21918 158 ft 9 kts 351°
2026-04-30 21:11 60.30035 5.21879 159 ft 6 kts 313°
2026-04-30 21:12 60.30043 5.21813 160 ft 5 kts 266°
2026-04-30 21:12 60.30036 5.21721 159 ft 10 kts 261°
2026-04-30 21:12 60.30005 5.21607 158 ft 11 kts 203°
2026-04-30 21:12 60.29955 5.21610 155 ft 0 kts 171°
2026-04-30 21:13 60.29878 5.21636 152 ft 45 kts 170°
2026-04-30 21:14 60.29323 5.21825 156 ft 114 kts 170°
2026-04-30 21:14 60.28366 5.22140 315 ft 151 kts 171°
2026-04-30 21:14 60.27336 5.22482 1114 ft 149 kts 171°
2026-04-30 21:14 60.26312 5.22823 1918 ft 149 kts 172°
2026-04-30 21:15 60.25217 5.23185 2379 ft 170 kts 172°
2026-04-30 21:15 60.23978 5.23598 2789 ft 193 kts 172°
2026-04-30 21:15 60.22572 5.24071 3277 ft 216 kts 173°
2026-04-30 21:15 60.21012 5.24588 3825 ft 240 kts 173°
2026-04-30 21:16 60.19315 5.25150 4583 ft 252 kts 173°
2026-04-30 21:16 60.17558 5.25732 5510 ft 259 kts 174°
2026-04-30 21:16 60.15761 5.26330 6477 ft 263 kts 174°
2026-04-30 21:16 60.13937 5.26938 7425 ft 267 kts 175°
2026-04-30 21:17 60.12120 5.27546 8367 ft 270 kts 175°
2026-04-30 21:17 60.10259 5.28174 9339 ft 272 kts 175°
2026-04-30 21:17 60.08373 5.28789 10303 ft 275 kts 176°
2026-04-30 21:17 60.06440 5.29327 10875 ft 291 kts 177°
2026-04-30 21:18 60.04353 5.29859 11218 ft 312 kts 178°
2026-04-30 21:18 60.02174 5.30411 11923 ft 319 kts 177°
2026-04-30 21:18 59.99961 5.30986 12767 ft 322 kts 177°
2026-04-30 21:18 59.97730 5.31573 13616 ft 325 kts 177°
2026-04-30 21:19 59.95480 5.32172 14444 ft 328 kts 177°
2026-04-30 21:19 59.93206 5.32778 15158 ft 331 kts 177°
2026-04-30 21:19 59.90905 5.33395 15841 ft 336 kts 177°
2026-04-30 21:19 59.88573 5.34027 16518 ft 341 kts 177°
2026-04-30 21:20 59.86237 5.34654 17182 ft 345 kts 177°
2026-04-30 21:20 59.83833 5.35290 17849 ft 350 kts 177°
2026-04-30 21:20 59.81403 5.35930 18511 ft 355 kts 177°
2026-04-30 21:20 59.78941 5.36548 19110 ft 359 kts 178°
2026-04-30 21:21 59.76436 5.37039 19703 ft 362 kts 180°
2026-04-30 21:21 59.73918 5.37442 20287 ft 365 kts 180°
2026-04-30 21:21 59.68798 5.38189 21468 ft 373 kts 180°
2026-04-30 21:22 59.67073 5.38447 21854 ft 375 kts 180°
2026-04-30 21:22 59.59143 5.40053 23568 ft 388 kts 176°
2026-04-30 21:23 59.56451 5.40787 24100 ft 392 kts 176°
2026-04-30 21:23 59.53736 5.41540 24558 ft 396 kts 176°
2026-04-30 21:23 59.48239 5.43021 25458 ft 401 kts 176°
2026-04-30 21:24 59.45457 5.43733 25900 ft 404 kts 176°
2026-04-30 21:24 59.42673 5.44671 26333 ft 410 kts 169°
2026-04-30 21:24 59.39962 5.46542 26758 ft 417 kts 159°
2026-04-30 21:24 59.37431 5.49406 27182 ft 424 kts 148°
2026-04-30 21:25 59.32789 5.56560 27432 ft 416 kts 145°
2026-04-30 21:25 59.30564 5.60017 27429 ft 411 kts 145°
2026-04-30 21:25 59.28320 5.63482 27428 ft 409 kts 145°
2026-04-30 21:26 59.23842 5.70332 27429 ft 409 kts 145°
2026-04-30 21:26 59.21602 5.73750 27429 ft 409 kts 145°
2026-04-30 21:27 59.17124 5.80585 27427 ft 409 kts 145°
2026-04-30 21:27 59.14887 5.83994 27426 ft 409 kts 145°
2026-04-30 21:27 59.12644 5.87404 27426 ft 409 kts 145°
2026-04-30 21:28 59.08159 5.94199 27426 ft 408 kts 145°
2026-04-30 21:28 59.05919 5.97591 27424 ft 408 kts 145°
2026-04-30 21:28 59.01428 6.04377 27420 ft 408 kts 145°
2026-04-30 21:29 58.99190 6.07750 27419 ft 408 kts 145°
2026-04-30 21:29 58.92473 6.17805 27417 ft 408 kts 145°
2026-04-30 21:30 58.87974 6.24522 27415 ft 408 kts 145°
2026-04-30 21:31 58.81254 6.34520 26879 ft 402 kts 145°
2026-04-30 21:31 58.76832 6.41071 26375 ft 399 kts 145°
2026-04-30 21:32 58.72460 6.47527 25728 ft 392 kts 145°
2026-04-30 21:32 58.70301 6.50700 25265 ft 389 kts 145°
2026-04-30 21:32 58.68157 6.53845 24795 ft 386 kts 146°
2026-04-30 21:32 58.66028 6.56969 24326 ft 384 kts 146°
2026-04-30 21:33 58.63913 6.60069 23824 ft 382 kts 145°
2026-04-30 21:33 58.59719 6.66199 22842 ft 375 kts 146°
2026-04-30 21:33 58.57676 6.69172 22372 ft 372 kts 146°
2026-04-30 21:34 58.55627 6.72156 21891 ft 369 kts 146°
2026-04-30 21:34 58.51728 6.78476 20917 ft 369 kts 133°
2026-04-30 21:34 58.50270 6.82604 20417 ft 371 kts 120°
2026-04-30 21:35 58.49330 6.87143 19932 ft 373 kts 107°
2026-04-30 21:35 58.48871 6.92034 19439 ft 374 kts 99°
2026-04-30 21:35 58.48513 6.96949 18940 ft 373 kts 100°
2026-04-30 21:35 58.48151 7.01859 18413 ft 373 kts 100°
2026-04-30 21:36 58.47787 7.06748 17916 ft 370 kts 100°
2026-04-30 21:36 58.47421 7.11609 17434 ft 368 kts 100°
2026-04-30 21:37 58.46324 7.26007 16017 ft 362 kts 101°
2026-04-30 21:37 58.45957 7.30755 15544 ft 361 kts 101°
2026-04-30 21:37 58.45589 7.35489 15075 ft 360 kts 101°
2026-04-30 21:37 58.45219 7.40200 14607 ft 358 kts 101°
2026-04-30 21:38 58.44859 7.44828 14124 ft 346 kts 101°
2026-04-30 21:38 58.44511 7.49273 13645 ft 331 kts 103°
2026-04-30 21:38 58.43989 7.53430 13227 ft 316 kts 108°
2026-04-30 21:38 58.43424 7.57495 12782 ft 316 kts 108°
2026-04-30 21:39 58.42860 7.61552 12371 ft 316 kts 108°
2026-04-30 21:39 58.42304 7.65560 11942 ft 316 kts 108°
2026-04-30 21:39 58.41740 7.69612 11514 ft 316 kts 108°
2026-04-30 21:39 58.41174 7.73673 11071 ft 316 kts 108°
2026-04-30 21:40 58.40608 7.77728 10640 ft 316 kts 108°
2026-04-30 21:40 58.40187 7.81761 10297 ft 307 kts 94°
2026-04-30 21:40 58.40462 7.85758 10124 ft 306 kts 73°
2026-04-30 21:40 58.41412 7.89400 9919 ft 310 kts 54°
2026-04-30 21:41 58.42937 7.92232 9423 ft 305 kts 34°
2026-04-30 21:41 58.44683 7.94526 8926 ft 303 kts 34°
2026-04-30 21:41 58.46215 7.97236 8407 ft 300 kts 54°
2026-04-30 21:41 58.47109 8.00819 7628 ft 300 kts 78°
2026-04-30 21:42 58.47205 8.04699 7122 ft 286 kts 102°
2026-04-30 21:42 58.46608 8.08182 6731 ft 269 kts 122°
2026-04-30 21:42 58.45527 8.10946 6351 ft 252 kts 135°
2026-04-30 21:42 58.44397 8.13400 5985 ft 241 kts 135°
2026-04-30 21:43 58.43291 8.15802 5407 ft 241 kts 134°
2026-04-30 21:43 58.42202 8.18200 5057 ft 232 kts 130°
2026-04-30 21:43 58.41313 8.20625 4992 ft 213 kts 128°
2026-04-30 21:43 58.40485 8.22904 5002 ft 207 kts 128°
2026-04-30 21:44 58.39666 8.25112 4983 ft 207 kts 131°
2026-04-30 21:44 58.38641 8.26951 4696 ft 197 kts 151°
2026-04-30 21:44 58.37412 8.27987 4321 ft 188 kts 171°
2026-04-30 21:44 58.36167 8.28195 4099 ft 172 kts 189°
2026-04-30 21:45 58.35049 8.27742 3883 ft 158 kts 205°
2026-04-30 21:45 58.34123 8.26812 3677 ft 145 kts 219°
2026-04-30 21:45 58.33311 8.25724 3477 ft 142 kts 219°
2026-04-30 21:45 58.32508 8.24649 3262 ft 141 kts 219°
2026-04-30 21:46 58.31711 8.23582 3051 ft 139 kts 219°
2026-04-30 21:46 58.30920 8.22522 2830 ft 139 kts 219°
2026-04-30 21:46 58.30115 8.21445 2611 ft 143 kts 219°
2026-04-30 21:46 58.29305 8.20366 2403 ft 141 kts 220°
2026-04-30 21:47 58.28504 8.19297 2173 ft 140 kts 220°
2026-04-30 21:47 58.27710 8.18238 1971 ft 140 kts 219°
2026-04-30 21:47 58.26917 8.17179 1746 ft 139 kts 219°
2026-04-30 21:47 58.26127 8.16127 1503 ft 138 kts 219°
2026-04-30 21:48 58.25343 8.15082 1286 ft 138 kts 218°
2026-04-30 21:48 58.24559 8.14036 1074 ft 138 kts 218°
2026-04-30 21:48 58.23780 8.12997 820 ft 137 kts 216°
2026-04-30 21:48 58.23003 8.11967 643 ft 135 kts 216°
2026-04-30 21:49 58.22233 8.10946 403 ft 134 kts 215°
2026-04-30 21:49 58.21479 8.09942 240 ft 134 kts 215°
2026-04-30 21:49 58.20720 8.08934 56 ft 126 kts 214°
2026-04-30 21:49 58.20208 8.08258 54 ft 46 kts 214°
2026-04-30 21:50 58.19984 8.07965 51 ft 37 kts 217°
2026-04-30 21:50 58.19788 8.07701 51 ft 30 kts 214°
2026-04-30 21:50 58.19715 8.07590 51 ft 11 kts 237°
2026-04-30 21:50 58.19749 8.07472 50 ft 12 kts 333°
2026-04-30 21:51 58.19822 8.07425 49 ft 11 kts 343°
2026-04-30 21:51 58.19903 8.07374 47 ft 11 kts 340°
2026-04-30 21:51 58.19915 8.07366 51 ft 0 kts 340°
2026-04-30 21:51 58.19926 8.07358 51 ft 3 kts 340°
2026-04-30 21:52 58.19957 8.07350 51 ft 6 kts 360°
2026-04-30 21:52 58.20006 8.07378 48 ft 9 kts 29°
2026-04-30 21:52 58.20070 8.07456 52 ft 13 kts 32°
2026-04-30 21:52 58.20147 8.07549 49 ft 10 kts 33°
2026-04-30 21:53 58.20191 8.07603 53 ft 0 kts 32°
2026-04-30 21:53 58.20199 8.07612 53 ft 0 kts 31°
2026-04-30 21:53 58.20208 8.07623 51 ft 4 kts 31°
2026-04-30 21:53 58.20210 8.07624 51 ft 0 kts 31°
2026-04-30 21:54 58.20212 8.07623 51 ft 0 kts
2026-04-30 21:54 58.20214 8.07619 51 ft 1 kts 340°
2026-04-30 21:54 58.20228 8.07601 53 ft 1 kts 317°
2026-04-30 21:54 58.20237 8.07582 53 ft 2 kts 312°
2026-04-30 21:55 58.20245 8.07551 53 ft 0 kts 297°